Wind_Speed
45 45 45 46 46 45 45 44 44 43 42 41 40 39 38 37 37 35 34 33 33 32 31 31 31 30 29 28 27 26 25 25 25 24 24 24 24 23 23 22 22 22 21 22 22 22 22 21 21 21 20 20 20 20 20 20 19 19 20 19 19 19 19 19 19 18 18 17 16 15 15 14 14 15 14 12 13 17 16 12 13 15 15 14 14 14 13 12
47 47 46 46 47 47 46 46 45 45 44 43 42 41 40 39 38 37 36 35 34 33 33 32 32 31 30 29 29 27 26 26 26 26 25 25 25 25 24 24 23 23 22 23 23 23 23 22 22 22 22 22 22 22 21 21 21 21 21 21 21 21 20 20 20 20 19 18 18 18 16 15 15 17 17 15 15 19 18 14 15 16 16 16 16 15 15 14
47 48 48 47 48 48 48 48 47 46 45 45 44 42 42 41 40 39 38 36 35 35 34 33 33 32 31 31 30 29 28 28 27 27 27 26 26 26 26 26 25 25 24 24 23 23 23 23 23 23 23 23 23 23 23 23 23 22 22 22 22 22 21 22 21 21 21 20 20 20 18 17 17 18 19 18 19 21 20 17 17 18 18 18 17 17 16 16
48 48 49 49 48 48 49 49 49 48 47 46 45 44 43 42 41 40 39 38 37 36 35 35 34 34 33 32 32 30 30 29 29 29 28 28 28 27 27 27 27 27 26 25 25 24 24 24 24 23 23 24 24 24 24 24 24 23 23 23 23 22 22 23 22 22 22 22 22 22 21 20 20 20 20 20 21 22 23 21 20 20 20 20 19 18 17 17
48 49 49 49 50 50 50 50 50 49 49 47 47 46 44 44 43 41 40 39 38 38 37 36 36 35 35 34 33 32 31 31 31 31 30 29 29 29 29 28 28 28 28 27 26 26 25 25 25 24 24 25 25 25 25 25 24 24 24 24 24 23 24 24 23 23 23 23 24 23 22 21 22 21 21 22 22 22 23 23 22 21 22 22 22 20 19 19
47 48 49 50 50 51 51 51 51 50 50 49 48 47 46 45 44 43 42 41 40 39 39 38 37 37 37 36 35 34 33 32 33 32 31 31 30 30 30 30 29 29 29 28 27 27 26 26 26 26 26 26 26 26 26 26 26 26 26 26 25 24 24 25 24 24 24 25 26 25 23 22 23 23 22 23 24 24 22 22 23 23 23 23 22 21 21 21
47 48 49 50 51 51 51 51 51 51 51 50 50 48 48 47 46 45 44 43 42 41 40 39 39 38 38 38 37 36 34 33 35 33 32 32 32 31 31 31 30 30 29 29 28 28 28 27 27 27 27 27 27 27 27 27 27 27 26 26 26 25 25 25 25 25 26 26 27 26 23 23 24 23 23 25 26 26 24 23 23 23 24 23 23 22 22 22
47 48 49 50 51 51 51 52 52 52 52 52 51 50 49 48 47 46 46 45 44 43 42 41 41 40 40 39 38 37 35 35 36 35 33 33 33 32 32 32 31 31 31 30 30 29 29 29 28 28 28 28 28 28 27 28 28 27 27 27 27 26 26 25 25 25 27 28 29 27 24 24 25 24 25 25 27 27 26 25 25 24 24 24 23 23 24 24
47 48 48 49 50 51 51 52 52 52 53 53 52 51 51 50 49 48 47 47 46 45 44 43 43 42 41 41 40 39 36 36 37 37 35 34 34 34 33 33 33 32 32 31 31 30 30 30 29 29 29 29 29 29 28 28 29 29 29 28 27 27 26 25 25 26 28 29 29 28 26 25 26 26 26 27 28 28 27 26 27 27 26 25 26 26 27 27
48 48 49 49 50 51 51 52 52 52 53 53 53 53 52 51 50 49 49 48 48 47 46 45 44 43 43 42 41 40 37 37 39 38 37 36 35 35 35 34 34 34 33 33 32 32 31 31 30 30 30 31 31 30 30 30 30 30 30 30 29 28 26 26 26 27 29 30 30 29 27 27 27 28 28 28 29 29 28 27 28 29 28 27 28 29 30 30
48 49 49 49 50 50 51 52 52 52 52 53 53 53 52 52 51 51 50 50 49 49 48 47 46 45 44 43 43 42 39 39 40 39 38 37 37 37 36 36 35 35 35 34 33 33 32 32 32 32 32 32 32 31 31 31 31 32 32 31 30 29 27 27 28 29 31 31 30 29 28 28 29 29 29 29 30 31 30 30 30 30 30 29 30 31 32 33
49 49 50 50 50 50 51 52 52 53 53 53 53 53 53 53 53 52 52 51 50 50 49 48 47 46 45 44 44 43 41 41 41 40 40 39 39 38 38 37 37 36 36 35 35 34 33 34 34 33 34 34 34 33 32 33 33 33 33 33 32 30 29 29 30 31 31 31 30 30 30 31 31 31 31 31 30 31 33 33 33 32 31 30 32 33 33 34
50 50 50 51 51 51 52 52 53 53 53 54 54 54 54 54 54 54 53 53 52 51 50 49 48 47 46 46 46 45 43 42 42 42 41 41 40 40 39 39 38 38 38 37 37 36 35 35 35 35 36 36 36 35 34 35 35 34 34 34 33 32 32 33 33 32 31 30 30 31 32 33 33 33 32 32 32 33 34 35 36 35 33 32 33 34 35 35
52 51 51 51 52 52 52 52 53 54 54 54 54 55 55 55 55 55 55 54 54 53 52 51 50 49 47 48 48 46 45 44 43 42 42 42 42 42 41 41 40 40 40 39 39 38 37 37 37 37 37 37 38 37 37 37 37 36 36 35 35 35 36 36 35 33 32 31 31 32 34 36 36 35 34 33 34 35 36 37 37 37 36 35 35 35 36 36
54 52 52 52 53 53 52 52 53 54 55 55 55 55 55 56 56 56 55 55 54 54 53 52 51 50 48 49 49 47 46 45 44 44 43 43 43 43 43 43 43 43 42 42 41 40 40 39 39 39 39 39 39 39 39 38 38 38 36 37 38 39 40 38 36 35 33 32 33 34 35 38 38 36 35 35 36 37 38 38 38 37 37 37 37 37 37 37
55 53 52 53 54 54 53 53 53 54 55 56 56 56 57 56 56 56 56 56 55 54 54 52 51 50 49 50 50 49 49 47 46 46 45 45 44 45 45 44 45 44 44 44 43 42 41 41 40 40 40 41 41 41 39 38 39 39 37 38 40 41 41 40 38 36 34 33 34 35 36 38 38 36 35 36 37 38 38 38 38 38 38 38 38 38 38 38
57 55 54 54 54 54 53 53 53 54 56 57 57 57 57 57 57 57 57 57 56 55 54 53 53 52 50 51 52 52 51 49 48 48 47 47 46 47 46 46 46 46 46 45 44 44 43 42 41 41 42 43 43 42 38 38 40 40 39 40 40 41 41 42 41 36 35 34 34 36 37 38 38 36 36 37 38 38 38 39 39 38 38 38 39 39 39 39
58 57 56 55 55 55 54 53 52 54 55 56 57 57 58 58 58 58 58 58 57 57 56 55 55 52 51 53 53 53 52 51 51 50 49 49 49 49 48 48 48 47 47 47 46 45 44 43 42 42 44 46 44 41 39 39 41 40 40 40 40 41 42 43 41 36 35 35 36 37 38 39 38 37 38 39 39 39 39 40 40 40 40 40 41 41 41 41
59 59 58 57 57 56 55 53 52 52 54 55 56 57 57 58 58 58 59 59 58 58 57 56 56 54 53 54 54 54 53 52 52 51 51 51 51 51 50 50 50 49 49 49 48 47 46 45 44 45 49 48 44 42 41 41 42 42 41 41 41 42 43 44 40 36 36 36 38 39 39 41 40 39 41 42 42 42 41 41 42 42 43 43 44 44 44 44
59 60 59 58 58 57 56 54 52 51 52 53 55 57 57 58 58 58 59 59 59 59 58 57 56 55 54 54 55 54 53 53 52 52 53 53 53 52 51 51 51 50 50 50 49 48 48 46 46 50 51 48 45 45 44 44 44 44 43 43 43 43 44 44 40 39 38 37 40 42 41 43 43 42 44 44 44 43 43 43 44 44 45 46 46 46 47 47
60 60 60 60 58 58 57 56 54 52 51 51 53 55 57 59 58 57 58 58 59 59 57 56 56 55 55 55 55 55 54 54 53 53 54 53 53 52 52 52 51 50 50 50 49 50 49 46 49 54 51 48 47 47 47 46 46 46 46 45 45 45 46 45 42 41 41 40 42 44 44 45 45 45 46 46 46 45 45 45 46 46 47 48 48 48 49 49
60 60 61 61 59 58 58 57 57 55 53 52 53 54 56 58 58 58 58 57 57 57 56 55 55 55 56 55 55 56 55 54 54 55 55 54 54 53 53 52 51 51 50 49 50 51 49 48 52 54 50 50 50 49 49 48 48 48 48 47 47 48 47 45 44 44 44 44 44 45 46 46 46 47 48 48 48 47 47 48 48 48 49 49 49 49 50 50
61 60 61 61 61 60 59 58 58 56 56 54 55 55 55 56 57 58 58 56 55 55 53 53 53 53 54 55 56 56 55 55 56 56 56 56 55 55 54 53 53 51 50 51 52 52 49 50 53 53 51 52 51 50 50 50 49 49 49 48 48 49 47 45 45 45 45 45 45 45 46 47 48 48 49 49 49 50 49 49 50 50 49 49 50 50 50 50
64 62 61 61 62 61 60 60 58 59 59 58 58 57 56 56 56 57 58 55 53 53 53 52 51 52 53 55 55 55 55 56 57 56 58 58 57 57 55 55 54 52 51 53 54 53 51 51 53 53 53 53 51 50 51 51 50 49 49 49 48 48 47 46 46 46 45 45 46 46 46 48 50 50 51 51 51 51 51 50 50 50 49 49 50 51 52 52
67 65 62 61 62 62 62 60 60 63 62 61 61 59 58 57 57 57 58 56 51 50 54 53 51 51 53 54 54 55 57 56 56 58 59 59 59 59 57 57 55 53 54 56 55 53 52 52 54 55 54 53 51 51 52 52 50 48 48 49 48 48 48 47 47 46 46 46 47 47 47 50 52 52 53 53 52 51 51 51 51 51 51 52 53 54 54 54
70 68 65 63 62 62 62 61 63 66 64 65 64 61 60 59 58 58 59 57 49 47 54 54 52 51 52 55 55 58 58 54 57 61 61 61 61 60 59 58 56 56 57 58 56 53 52 55 56 55 54 54 52 52 54 53 50 48 49 50 49 49 49 48 47 47 46 47 48 48 49 51 54 54 54 53 52 52 52 53 53 53 54 55 55 56 56 56
73 71 68 66 63 62 62 62 65 65 65 68 65 63 63 61 61 60 61 59 45 41 51 54 54 53 53 56 58 60 59 55 60 63 62 62 62 62 61 58 58 58 59 59 56 53 54 57 56 56 55 54 53 54 55 53 50 49 51 51 51 50 50 49 49 48 47 48 49 51 52 51 53 56 55 53 52 52 53 54 55 56 56 57 57 57 58 58
76 74 71 68 65 62 62 63 64 64 67 69 67 67 66 65 65 63 65 59 39 36 48 52 54 56 55 57 59 61 60 58 61 62 62 64 62 62 61 59 59 59 59 59 56 55 56 57 56 57 56 55 55 56 56 54 52 52 53 54 53 52 51 51 51 50 50 50 50 53 55 52 52 55 56 53 52 53 55 56 56 57 57 58 58 59 60 61
79 76 72 70 66 63 61 62 63 66 68 69 69 69 67 67 66 65 66 55 35 35 44 48 53 56 57 58 59 61 61 60 61 61 62 63 61 61 61 60 60 59 59 59 57 56 57 57 58 58 57 56 57 57 57 56 55 55 56 56 56 54 54 53 53 52 52 51 51 56 57 53 51 52 54 54 54 55 56 57 58 58 59 60 61 62 62 63
80 77 74 71 67 63 62 62 64 68 69 70 71 69 69 68 67 68 65 48 36 41 45 47 53 56 58 60 60 61 62 61 61 61 61 61 61 61 61 61 61 60 60 59 58 58 58 59 59 58 58 58 58 58 58 58 57 58 58 58 58 57 56 55 54 54 54 52 54 58 57 54 51 49 51 55 56 56 58 58 59 60 61 62 62 63 63 63
80 78 76 73 69 67 65 63 66 70 69 69 70 70 71 70 70 72 61 46 46 50 48 49 52 54 59 61 62 63 62 62 62 61 61 61 61 61 61 61 60 60 60 59 60 61 60 60 59 59 59 58 58 59 59 59 59 60 60 60 60 59 58 57 56 56 55 54 56 58 56 54 51 49 52 55 57 58 59 60 61 62 62 63 63 64 64 64
81 80 79 76 72 70 67 66 69 70 69 69 71 72 73 74 75 71 59 55 59 55 49 50 52 54 59 60 61 62 61 61 62 61 61 61 61 61 61 61 61 61 60 60 62 63 61 60 60 59 59 59 60 59 59 59 60 60 60 61 61 60 59 58 58 59 58 57 57 57 56 54 52 53 55 57 59 61 62 63 64 64 65 66 66 67 67 67
83 81 80 77 74 72 70 70 71 70 69 70 71 73 76 79 76 68 62 63 64 57 52 52 54 56 59 60 62 63 62 62 61 62 62 61 60 60 61 61 61 62 61 62 63 62 61 60 60 60 60 60 60 60 60 60 60 60 61 61 61 61 61 61 61 62 60 59 59 58 57 55 54 57 59 60 62 63 65 66 67 68 69 69 70 71 71 71
85 84 81 78 76 75 74 73 73 72 72 71 72 75 79 79 74 67 65 66 64 61 58 57 57 59 59 60 63 64 65 64 63 62 62 61 60 59 60 61 61 62 62 62 63 62 62 61 61 61 61 61 61 61 61 61 61 62 62 63 63 64 65 64 64 64 62 61 59 58 57 56 56 60 62 64 66 67 68 69 70 71 72 73 74 74 74 74
87 86 84 81 78 77 76 75 75 75 74 72 74 79 80 76 71 69 69 68 67 66 64 63 63 62 60 60 60 62 64 65 65 65 63 62 60 59 60 60 61 62 63 63 63 64 63 62 62 63 62 62 62 62 63 63 63 64 65 65 65 67 68 66 65 64 63 62 59 58 58 58 60 62 64 66 69 70 72 72 74 75 76 77 77 77 76 77
88 87 85 81 78 78 78 78 78 77 76 76 79 82 80 74 71 72 71 71 70 68 67 66 66 65 63 62 61 61 62 64 65 66 64 63 62 60 60 60 61 62 63 64 64 65 64 63 64 64 63 64 64 64 64 65 66 66 66 66 67 69 68 66 65 63 63 62 59 58 59 60 62 64 65 68 71 73 74 76 77 78 79 80 81 81 80 80
86 86 83 80 78 79 81 81 80 80 80 81 83 83 80 75 73 73 72 73 72 70 68 67 66 67 66 65 63 63 63 64 64 65 65 65 63 61 61 62 62 62 64 66 65 64 65 64 64 65 65 65 66 66 66 65 66 66 66 67 68 68 66 66 65 64 64 63 60 60 61 61 63 64 66 70 73 75 77 79 80 81 82 83 83 84 84 84
83 83 82 79 79 80 80 81 82 82 83 85 86 84 81 77 75 74 74 75 76 74 71 68 68 67 67 66 65 66 67 66 64 65 65 65 63 62 64 65 64 64 67 67 66 66 66 65 65 65 66 66 67 67 66 66 67 67 67 67 67 66 65 66 66 65 66 66 63 62 62 63 64 66 69 72 75 78 81 83 84 84 85 86 87 88 89 89
85 83 81 80 81 80 79 80 81 84 86 88 87 84 81 78 76 76 76 77 78 77 75 73 72 70 67 66 66 68 70 68 67 67 66 65 63 63 66 68 67 68 70 70 69 68 68 67 66 67 68 69 69 68 68 69 70 70 68 68 68 68 68 68 69 68 69 69 67 64 64 64 65 69 72 74 78 81 83 84 85 86 88 89 91 91 92 92
87 84 81 80 81 81 81 82 83 85 88 88 86 83 82 80 78 78 78 78 80 79 77 75 75 73 71 69 68 69 69 69 69 70 68 66 65 64 67 69 70 71 73 73 71 70 70 71 71 71 72 72 71 71 72 72 72 71 69 69 70 70 71 72 72 72 71 71 70 68 66 65 67 71 74 76 80 83 84 85 87 88 90 92 93 94 95 95
89 87 82 81 82 81 82 84 84 84 84 84 83 81 81 80 78 77 77 78 79 80 79 78 77 75 74 73 71 70 70 69 69 70 70 69 68 68 69 70 71 72 74 74 73 73 74 74 74 74 73 73 73 74 74 74 73 73 73 72 73 73 75 76 76 76 76 75 75 74 71 69 70 74 76 79 83 85 86 88 90 92 94 95 97 98 99 99
91 88 83 81 82 82 84 85 84 84 84 82 81 81 80 79 77 75 75 76 76 77 78 78 77 77 76 74 73 72 73 71 70 70 71 70 71 71 71 72 72 72 74 75 74 75 76 76 75 75 75 75 76 76 76 76 76 77 76 76 77 78 79 80 79 79 80 80 78 78 76 72 72 77 81 83 85 87 90 92 94 96 97 98 99 100 101 101
87 84 81 81 83 84 85 86 85 85 84 82 81 82 82 80 78 76 76 76 75 75 76 77 77 78 78 78 77 76 75 74 73 72 71 72 73 74 75 76 75 74 75 76 75 76 77 78 77 77 78 78 78 78 78 78 78 79 80 81 82 82 83 83 83 82 83 83 82 82 80 75 75 81 85 86 88 91 94 96 97 98 99 99 99 99 100 101
84 83 82 82 83 85 87 88 86 83 83 82 81 81 81 82 82 81 81 80 79 78 77 77 78 79 79 80 80 79 78 77 76 74 75 75 76 76 78 80 80 79 79 80 80 80 82 82 81 80 81 81 81 81 80 80 81 83 83 83 84 84 85 87 88 88 88 86 86 88 85 81 83 87 90 92 94 96 98 100 101 102 102 101 100 101 101 100
87 88 88 87 88 88 88 88 86 84 82 82 82 81 80 81 83 85 86 86 85 83 81 79 78 79 80 81 81 81 81 80 79 78 78 79 80 81 82 83 84 84 84 85 85 86 88 87 85 85 84 84 84 84 83 84 86 85 84 84 86 87 88 89 91 92 91 89 90 91 90 89 91 94 96 98 100 101 102 104 105 105 104 104 103 102 101 99
92 91 91 91 93 94 93 92 91 88 85 82 82 82 82 82 83 86 89 90 90 88 84 80 78 78 78 80 81 82 82 82 83 82 82 82 83 84 85 86 86 86 87 88 89 91 93 92 90 89 88 89 89 89 88 89 89 89 88 89 89 89 89 91 92 92 92 93 94 93 94 96 97 98 101 103 104 105 106 106 105 104 103 102 101 100 99 97
99 97 93 90 91 92 93 93 93 90 87 85 84 83 84 85 85 86 88 90 90 88 86 83 80 78 77 78 80 82 84 84 85 86 85 85 86 87 88 89 90 90 90 91 92 94 95 95 94 93 92 92 92 92 92 92 93 93 93 92 91 89 89 89 89 89 90 94 95 94 97 100 99 101 104 103 104 106 105 103 100 98 98 98 97 97 96 96
103 104 102 98 95 92 89 88 88 87 86 87 87 86 85 86 87 87 88 89 89 87 86 84 81 78 77 77 79 81 83 84 86 86 87 88 88 89 90 91 92 91 91 92 92 94 95 96 95 95 95 95 95 95 96 96 96 97 96 93 90 88 88 88 87 86 88 92 91 91 95 96 95 97 99 99 101 102 100 97 95 94 95 95 95 95 96 97
107 107 106 105 103 99 95 92 90 89 88 88 89 88 86 84 84 85 87 88 88 87 87 85 83 81 80 80 80 81 82 84 86 86 87 88 89 90 91 92 93 92 92 92 92 93 94 94 95 95 96 97 98 99 99 100 100 100 99 95 90 88 90 90 89 90 93 92 90 91 93 91 90 94 97 99 99 98 97 96 95 95 96 96 97 99 101 104
111 111 110 108 106 104 102 100 99 97 97 95 93 91 89 87 85 84 85 87 87 88 87 86 85 85 84 83 83 82 83 86 88 89 90 91 92 92 92 92 91 91 91 92 93 94 95 96 97 98 99 101 102 103 104 105 104 103 100 95 92 92 94 95 96 97 98 95 93 96 96 92 93 98 101 101 101 100 100 100 100 100 102 103 104 107 110 113
113 113 113 112 110 108 105 104 104 103 103 102 100 97 95 93 92 91 91 91 90 91 91 90 89 89 88 86 84 84 85 88 91 93 93 93 92 92 91 91 91 91 92 94 96 98 99 100 101 103 104 105 105 106 108 107 107 106 100 95 95 98 100 101 102 101 101 101 102 104 101 99 102 105 106 107 108 108 108 108 109 110 111 112 114 116 118 120
117 117 116 115 114 112 110 108 108 107 105 103 102 101 100 99 99 99 98 97 95 95 95 95 95 95 94 91 88 88 89 90 93 95 96 94 92 92 93 95 95 96 98 99 101 102 104 105 105 107 108 108 108 109 108 107 108 106 99 96 99 103 104 105 104 104 105 107 109 109 108 108 110 112 112 114 115 115 116 116 116 117 118 120 121 123 124 125
Wind_Direction
237 237 237 237 237 237 237 237 238 240 241 241 242 243 244 245 246 247 248 249 251 252 254 256 257 259 260 261 262 263 264 265 266 267 267 268 268 269 268 268 269 269 268 268 267 267 266 266 266 266 265 264 264 264 264 265 265 266 269 271 273 276 277 279 280 281 282 283 283 283 286 292 296 297 297 293 285 285 295 301 292 291 293 297 302 306 309 310
238 238 238 237 237 237 237 238 238 239 241 242 242 243 244 245 246 247 248 249 250 252 253 255 257 258 259 260 261 261 262 262 263 263 264 265 265 266 266 265 265 265 265 265 265 265 265 266 265 265 265 264 264 264 265 265 266 267 269 271 272 276 277 278 279 281 281 281 281 282 284 287 290 292 293 292 286 286 294 295 289 290 291 293 295 297 301 302
239 239 239 239 238 238 238 238 239 239 240 241 242 243 244 245 246 247 248 249 250 252 253 254 256 257 257 258 259 259 259 260 260 260 261 262 262 263 263 263 263 263 263 263 263 264 264 265 265 265 264 264 264 265 266 266 266 267 268 270 272 274 276 277 279 280 281 281 281 282 283 283 284 286 288 289 287 288 292 291 288 289 290 291 292 294 295 296
240 240 240 240 240 239 239 239 240 240 241 242 242 243 244 246 247 247 249 250 251 252 252 254 255 256 256 257 257 257 257 257 257 258 259 259 260 260 261 262 262 263 263 263 263 264 264 265 265 265 264 265 265 266 266 266 266 267 268 269 271 273 274 276 278 279 280 281 281 282 283 283 283 283 284 285 284 287 290 289 289 289 289 291 293 295 296 296
241 241 241 240 240 240 240 240 240 241 241 242 243 244 245 246 247 248 249 250 251 251 252 253 254 254 255 255 255 255 255 255 256 256 257 257 258 259 260 261 262 263 264 265 265 266 266 266 266 266 266 266 267 267 266 266 266 267 268 269 271 272 274 275 277 279 279 280 281 281 283 283 283 284 285 284 283 284 286 288 289 288 287 290 293 296 298 298
243 242 242 242 241 241 241 241 241 241 242 243 243 244 245 246 247 248 249 250 250 251 251 252 252 253 254 254 254 254 254 254 255 255 256 256 257 259 260 261 262 264 265 266 267 268 268 268 269 269 269 269 268 268 268 268 268 268 269 270 271 272 273 275 277 279 279 280 280 280 282 282 283 285 287 286 285 283 283 286 287 287 286 288 291 294 297 298
245 244 244 243 243 242 242 242 242 241 241 242 243 244 245 246 247 248 249 249 250 250 251 251 252 252 253 253 254 254 254 255 256 255 256 257 257 258 260 261 263 264 266 267 268 269 269 269 270 270 270 270 270 270 270 271 271 270 271 271 272 273 274 276 278 280 280 280 280 280 281 282 283 285 286 287 286 285 285 286 285 284 285 287 290 293 295 296
245 245 245 244 244 244 243 243 243 242 242 242 242 243 244 245 245 246 248 249 249 250 251 251 251 252 253 253 254 254 254 255 257 256 256 257 258 259 260 261 263 265 266 267 268 269 269 270 271 271 271 271 271 272 272 273 273 272 272 272 273 274 276 277 279 280 280 280 280 280 282 283 283 285 285 285 285 285 287 288 286 285 285 287 292 294 294 294
245 245 245 245 245 244 244 244 244 244 244 243 243 243 243 244 245 245 246 247 248 249 250 251 251 252 253 253 254 254 253 255 257 257 256 256 258 259 260 261 263 264 266 267 268 269 270 270 271 272 272 272 272 273 273 273 273 274 273 273 273 274 276 278 279 279 278 278 280 281 284 284 284 285 285 284 285 285 287 288 289 289 289 291 294 295 295 295
245 245 244 245 245 245 245 244 244 245 245 245 244 244 244 244 245 245 246 247 248 249 249 250 251 252 253 254 254 254 253 255 257 257 256 256 257 259 260 261 262 264 265 267 268 269 270 270 271 271 272 273 273 274 274 275 275 275 274 274 274 275 276 277 278 277 276 277 279 282 284 285 284 284 284 285 285 286 287 288 289 289 291 294 295 295 296 297
245 244 244 244 245 245 245 245 244 244 244 245 245 246 245 245 246 246 246 247 248 249 250 251 251 252 253 254 255 254 253 254 256 257 257 257 257 258 259 261 262 263 265 266 267 268 269 270 270 270 271 272 272 273 274 275 275 275 275 276 276 276 277 276 275 274 274 277 280 283 284 283 283 283 284 284 285 288 289 288 287 287 290 293 294 294 295 296
244 244 244 244 245 245 245 244 245 244 244 245 245 246 246 246 246 246 247 247 248 249 250 251 251 252 253 254 255 254 253 253 255 256 257 258 258 259 259 260 261 263 264 265 266 266 267 268 269 270 270 271 272 273 274 274 274 274 275 276 277 278 278 276 273 272 274 277 281 283 284 283 282 282 282 283 285 287 287 287 286 286 288 289 290 290 291 291
245 244 244 244 245 245 244 244 244 245 245 245 245 245 245 246 246 246 247 247 248 248 249 250 251 251 252 254 254 254 254 254 255 256 257 258 259 259 260 261 261 262 263 264 265 265 266 267 268 269 269 270 271 271 272 272 272 273 274 276 277 278 276 273 272 273 275 278 281 282 282 281 280 280 281 282 283 284 284 284 284 285 286 287 286 287 287 287
245 245 244 244 245 245 244 244 245 245 245 245 245 245 245 246 246 246 246 247 247 248 249 249 250 251 252 253 254 254 255 255 255 256 258 259 259 260 261 261 262 262 262 263 264 265 265 266 266 267 268 269 270 270 269 270 271 272 273 275 276 275 272 271 273 275 277 279 280 279 279 278 278 279 280 281 281 281 280 280 281 284 286 285 285 285 285 285
244 245 244 244 244 244 245 245 245 245 245 245 245 245 245 246 246 247 247 247 248 248 249 250 250 251 252 254 255 255 255 256 256 256 257 258 259 260 261 261 262 262 262 263 263 264 264 265 265 267 268 268 268 268 268 269 270 271 272 274 273 272 272 273 274 275 277 278 279 278 277 277 277 279 281 281 280 279 278 279 280 281 282 283 283 283 282 283
242 244 244 243 243 243 244 245 246 246 246 246 245 245 245 245 246 246 247 247 248 248 249 250 251 251 252 254 255 255 255 255 256 256 257 257 259 259 260 261 261 262 262 262 262 262 263 263 264 265 266 267 267 266 267 269 270 270 271 270 270 272 273 275 274 274 276 277 278 277 277 276 278 281 282 280 279 278 279 279 280 280 280 280 281 281 281 281
240 242 243 243 243 243 244 246 247 248 248 247 247 246 246 245 245 245 246 247 247 248 249 249 250 250 251 253 254 254 254 255 255 256 257 257 257 258 259 260 261 261 261 262 262 262 262 262 263 264 264 264 264 265 267 269 269 269 269 268 270 272 273 274 274 276 278 278 277 276 276 276 278 281 280 279 279 279 280 280 280 281 281 281 280 280 281 281
240 240 241 242 243 243 244 247 248 248 248 248 248 248 248 248 247 246 246 246 246 246 247 248 248 249 250 252 253 254 255 255 256 256 257 257 258 258 259 259 260 261 261 262 262 262 262 262 263 263 262 262 263 265 266 267 267 268 268 269 270 271 272 273 275 278 279 278 277 276 277 277 278 280 279 279 279 279 279 280 281 282 282 281 281 281 281 282
242 240 240 241 242 243 244 246 248 249 249 248 248 248 249 249 249 248 248 247 247 247 246 247 248 248 250 252 253 255 256 256 257 257 258 258 258 259 260 261 262 262 263 263 263 264 264 264 264 263 261 262 264 266 266 265 266 267 268 269 270 271 272 273 277 279 278 278 278 277 277 278 279 280 279 279 280 280 280 280 281 281 281 281 281 282 282 282
243 241 240 241 242 243 244 246 248 250 250 249 248 248 249 249 248 248 248 248 248 248 248 248 249 249 250 252 253 255 256 257 258 258 258 259 259 260 262 263 263 264 264 265 266 266 266 266 265 263 263 265 266 266 266 266 266 267 268 269 270 271 273 274 277 278 277 277 277 277 278 279 280 280 280 280 280 281 281 281 281 281 281 281 281 282 282 282
245 243 241 240 241 242 244 246 247 250 251 251 250 250 249 248 248 248 249 248 249 249 249 249 249 250 250 251 252 254 255 257 258 258 259 259 260 261 261 261 262 263 264 265 266 265 265 266 264 264 266 268 267 266 266 267 267 268 268 269 270 271 272 274 276 277 276 276 276 277 278 279 280 280 280 281 281 281 282 281 282 281 281 282 282 283 283 283
245 244 243 241 241 242 243 245 247 249 251 252 252 251 250 249 249 249 249 249 250 250 250 250 250 251 252 252 252 253 254 256 257 258 258 259 259 259 259 260 261 262 263 264 264 264 264 264 263 265 267 267 266 266 266 267 267 267 268 269 269 269 271 273 274 274 275 275 276 277 278 279 280 280 281 281 282 282 282 282 282 282 282 283 283 283 283 284
242 243 244 243 242 242 243 244 246 248 250 251 252 252 252 252 251 250 249 249 250 251 251 251 252 252 253 254 253 254 255 256 256 257 258 258 259 259 259 260 260 260 262 262 262 262 263 263 264 266 266 266 266 267 267 267 267 268 269 269 269 270 271 272 272 272 273 275 276 276 278 279 279 280 281 281 281 282 282 282 282 282 283 283 283 284 284 284
241 241 242 243 243 242 242 244 246 248 249 250 252 252 253 253 252 251 250 249 249 252 253 251 251 253 254 254 254 255 255 255 256 257 258 258 258 259 259 259 259 260 261 261 261 262 262 262 263 265 265 266 267 267 268 268 268 268 269 270 270 271 271 271 271 272 273 274 275 275 277 278 279 279 280 281 281 282 282 282 282 282 283 283 283 283 283 284
242 241 241 241 242 242 242 243 245 246 247 249 250 252 252 253 253 253 252 249 246 251 254 253 251 251 254 255 255 255 254 254 256 257 257 258 258 258 258 259 260 260 260 261 261 263 264 264 263 263 264 266 266 267 268 267 267 269 269 269 269 269 269 270 270 271 272 273 274 275 276 278 278 279 280 281 281 282 281 281 281 282 282 282 282 283 283 284
241 241 240 240 240 242 242 242 243 244 246 248 249 251 252 253 254 253 253 250 243 246 254 255 253 251 252 254 253 253 252 252 255 255 255 256 257 258 258 259 260 260 260 261 262 264 265 264 264 264 265 266 266 267 267 267 268 268 269 268 268 268 268 269 270 271 272 273 274 276 276 277 279 279 279 280 281 280 280 281 281 281 282 282 283 284 284 284
240 240 241 240 239 240 241 241 243 244 246 247 248 250 251 252 253 253 253 250 240 243 253 256 256 254 252 253 253 253 251 250 252 254 254 255 255 256 257 258 260 260 260 261 263 264 264 264 266 266 266 267 267 266 266 267 268 268 268 268 268 268 269 270 270 271 272 273 275 276 275 276 278 279 279 279 279 280 280 281 281 282 282 283 283 284 284 284
239 239 240 241 240 239 240 242 243 244 246 247 248 249 249 250 251 251 252 249 237 239 251 255 257 257 255 254 254 255 253 250 251 253 254 255 255 257 258 258 259 259 260 261 262 262 263 264 266 266 267 268 268 267 268 268 268 268 268 269 269 269 270 271 271 272 272 273 274 275 275 276 276 278 279 279 278 279 280 280 281 281 282 282 283 283 283 283
240 239 240 241 240 240 241 243 245 245 246 247 247 247 248 249 249 249 250 247 235 235 245 251 256 258 259 258 257 257 257 255 254 255 255 256 257 257 258 258 258 259 260 261 261 261 262 263 264 265 266 267 267 268 269 269 269 269 269 269 270 270 271 271 272 272 272 273 274 274 275 276 275 275 277 277 278 278 279 279 280 281 282 282 283 283 283 284
243 242 241 242 242 242 242 243 245 247 247 248 248 249 249 249 250 250 249 246 240 234 235 242 251 256 259 260 260 260 259 258 257 257 258 259 259 259 259 259 259 259 260 261 261 261 261 261 262 264 265 266 267 268 269 269 270 269 269 270 271 271 272 272 272 272 272 273 273 273 275 276 274 273 273 274 276 277 278 279 280 281 282 283 283 284 284 284
244 243 242 242 243 243 243 244 246 247 248 249 250 250 251 250 250 250 249 248 245 236 231 237 244 250 254 257 258 259 260 260 259 259 259 259 259 259 260 260 260 260 260 261 262 261 260 261 262 263 265 266 267 267 267 268 269 269 270 271 271 272 272 272 272 272 272 272 273 274 275 274 272 269 268 271 273 274 275 277 278 279 280 280 281 281 281 280
244 243 242 242 242 243 243 245 247 248 248 249 250 250 250 250 250 251 251 251 248 241 236 237 239 244 250 253 255 257 258 259 259 258 258 258 258 259 260 261 261 261 260 260 260 260 261 262 263 264 264 265 265 266 266 267 268 269 270 271 272 272 272 272 272 272 272 272 273 274 273 271 270 268 268 269 270 271 272 274 275 276 276 277 277 277 277 277
245 244 243 242 241 242 243 244 246 248 248 249 250 251 251 250 250 251 252 251 250 246 242 240 240 242 246 250 252 254 255 255 256 257 258 258 258 258 259 260 260 260 260 260 261 262 262 262 262 263 263 264 264 265 266 266 268 269 269 270 272 273 273 273 273 273 273 273 273 272 271 270 268 268 268 269 269 270 271 272 273 274 275 275 275 275 275 275
245 244 243 242 241 241 242 244 246 248 249 250 251 253 252 251 251 252 251 251 252 250 246 244 243 243 245 248 250 252 254 254 255 256 257 258 258 258 259 259 260 260 260 260 261 262 261 261 262 262 263 264 264 265 265 266 267 268 269 270 271 272 272 272 272 273 273 273 272 271 271 269 266 266 267 269 270 271 271 272 273 274 274 275 274 274 275 275
245 244 243 242 241 242 243 244 246 248 249 250 252 253 252 251 252 252 252 252 252 251 249 247 245 244 244 247 250 253 254 254 255 256 257 258 258 259 259 259 259 260 259 259 260 260 261 261 261 262 262 263 263 264 265 266 267 267 268 270 271 271 270 271 271 272 272 272 272 271 270 267 265 265 267 269 270 271 272 272 273 274 275 275 275 275 275 275
244 243 243 242 243 243 244 244 245 247 248 250 252 253 253 252 251 252 253 253 252 251 251 250 249 247 246 246 249 252 253 254 254 256 257 258 258 258 259 259 258 258 258 258 258 259 259 259 260 261 261 261 262 263 264 265 266 267 268 269 269 269 270 271 271 272 272 271 270 269 268 267 266 267 268 269 270 271 272 272 273 273 274 274 275 275 274 274
243 243 243 243 243 244 245 245 245 246 248 250 251 253 253 252 251 252 253 254 254 253 252 252 252 251 250 249 249 250 252 253 254 255 257 257 258 258 259 258 257 257 257 257 257 258 258 258 258 259 259 260 261 262 263 264 266 267 268 268 268 269 271 272 272 272 272 272 270 268 268 268 268 269 270 271 272 272 273 273 273 273 274 275 275 275 275 275
244 244 244 243 243 244 245 246 246 246 247 249 251 253 253 252 252 253 254 255 256 255 254 255 254 253 252 251 251 251 251 252 254 255 256 258 258 258 259 258 257 257 257 257 257 257 258 257 258 258 260 260 261 262 264 265 266 267 267 268 269 271 272 272 272 272 272 272 270 269 269 269 270 271 271 272 273 273 273 273 274 275 275 276 276 276 276 276
245 245 244 244 245 245 245 246 247 247 247 247 249 252 253 253 253 253 254 256 257 257 256 256 256 255 254 254 253 252 252 252 253 255 256 257 258 258 258 258 257 257 257 257 257 257 258 258 258 259 260 261 262 264 265 266 267 267 268 269 271 271 272 272 272 271 271 271 271 270 269 270 272 273 273 273 273 273 273 274 275 276 276 277 277 277 277 277
245 245 245 245 245 245 245 246 246 247 247 247 247 250 253 254 254 254 255 256 257 258 258 257 257 257 257 257 255 254 253 252 252 254 255 257 258 258 258 259 258 258 257 257 257 258 259 260 260 260 261 263 264 265 266 266 267 268 269 271 271 272 273 272 271 271 271 271 271 271 270 270 271 272 272 273 272 272 273 275 276 276 276 277 277 277 277 278
245 245 244 245 245 245 245 245 246 248 249 249 248 249 251 253 254 255 256 257 258 258 259 258 258 257 258 257 256 255 254 253 252 253 254 255 257 257 257 258 258 259 259 259 259 260 260 261 261 262 263 264 265 265 265 267 268 269 270 271 273 274 274 273 271 270 271 271 272 272 272 271 271 271 271 270 271 272 274 275 275 276 276 277 277 278 278 279
247 247 245 245 245 244 244 245 246 248 250 251 250 248 249 252 254 255 256 257 258 259 259 259 259 259 259 258 257 256 255 254 253 252 252 253 254 256 257 257 258 259 261 261 261 261 262 262 262 263 264 264 264 265 267 268 269 270 271 272 273 273 273 273 273 272 272 273 274 273 273 273 273 272 271 271 272 273 274 274 275 276 277 277 278 278 279 279
247 249 248 246 245 243 243 244 245 247 250 252 252 250 249 249 252 255 256 257 259 260 260 260 260 260 260 260 259 257 256 255 254 253 253 253 253 255 257 258 258 259 260 261 262 262 262 262 262 263 264 264 265 266 268 269 270 271 271 271 271 272 272 273 273 273 272 272 273 274 273 273 272 270 270 271 272 273 274 275 276 276 276 276 277 277 277 277
245 247 247 247 247 244 242 242 244 248 251 253 254 253 251 249 249 251 253 255 258 259 260 260 259 260 260 260 261 260 258 257 256 255 254 254 254 256 257 258 259 259 260 261 261 262 262 262 262 263 264 265 265 266 267 268 269 269 270 272 273 273 273 272 271 270 270 272 273 273 273 272 270 269 269 270 271 272 274 275 276 276 276 276 276 276 276 276
243 244 245 246 247 247 246 245 246 248 249 252 254 256 255 252 250 250 252 254 257 259 259 259 259 259 260 261 262 262 262 260 259 258 257 256 256 256 257 259 260 260 261 261 262 263 264 264 263 263 264 264 265 265 266 267 268 269 272 274 275 274 273 272 270 269 270 270 271 271 272 270 268 269 269 270 271 273 274 275 275 275 276 276 276 275 275 276
241 243 245 246 248 249 249 250 251 250 249 250 253 256 257 256 254 252 252 255 258 259 259 259 260 261 261 262 263 264 264 264 262 261 259 258 257 257 257 258 259 260 261 262 263 263 264 265 264 264 264 264 264 264 264 265 268 270 272 274 275 276 274 272 271 270 270 269 268 269 270 269 269 269 270 271 272 274 274 274 275 275 275 275 275 275 276 277
240 242 244 246 248 250 252 253 255 255 254 252 252 252 253 255 255 254 255 257 259 261 261 260 261 262 264 264 265 265 266 266 266 265 263 262 261 260 259 259 260 260 261 262 262 263 264 264 264 264 265 265 265 265 265 266 268 269 271 272 274 275 274 273 272 272 271 270 269 268 269 269 270 271 271 273 273 273 273 274 274 275 275 275 276 278 280 282
240 242 243 245 246 249 251 253 255 256 256 256 255 254 252 252 253 254 256 258 260 262 263 263 262 263 264 265 265 266 266 268 268 268 268 267 266 264 264 263 263 263 264 265 266 267 267 267 267 267 266 267 267 267 268 268 268 269 269 270 272 272 272 273 273 273 273 272 271 270 270 271 272 273 275 276 274 274 275 276 278 278 279 280 282 285 287 288
239 242 243 245 246 247 248 249 251 253 254 255 256 258 258 256 254 254 256 258 259 261 262 264 265 265 264 264 264 264 265 267 268 268 268 268 267 267 267 267 268 269 269 270 271 272 273 273 273 273 272 272 272 273 274 274 273 273 272 273 273 273 274 276 277 278 278 277 276 276 275 275 277 280 281 280 279 280 282 283 284 285 286 288 291 292 293 294
239 241 242 244 245 246 246 246 247 249 251 252 254 255 258 259 258 256 256 256 258 260 261 263 265 265 265 265 265 265 265 265 266 267 266 266 266 267 267 268 270 271 272 273 273 273 274 274 274 275 275 275 276 277 278 279 279 278 277 278 280 280 281 283 283 284 285 285 285 283 282 283 285 286 286 287 287 289 289 290 290 292 294 295 296 296 296 296
239 240 242 243 244 245 245 246 247 248 249 251 252 253 254 255 256 256 255 255 256 259 262 264 265 266 265 265 265 266 266 265 265 266 266 266 266 266 266 267 268 269 270 270 271 271 272 272 273 273 274 275 276 276 278 279 279 278 279 283 286 286 286 286 287 289 291 291 290 289 290 290 291 290 291 293 293 293 294 295 296 297 297 297 297 296 296 296
239 240 241 242 243 244 244 245 246 247 249 250 251 252 252 252 253 254 255 256 257 258 260 262 264 265 266 265 265 265 265 265 264 264 264 264 264 264 264 265 266 267 268 268 269 270 270 271 272 273 273 274 275 276 278 279 278 280 284 287 286 285 285 287 289 291 291 290 291 292 293 293 293 293 294 294 294 294 295 296 296 296 296 296 296 295 295 295
Height
10778 10779 10781 10782 10784 10785 10786 10788 10789 10791 10792 10794 10795 10796 10798 10799 10800 10801 10803 10804 10805 10806 10807 10807 10808 10809 10809 10810 10811 10811 10812 10812 10813 10813 10813 10813 10813 10813 10813 10813 10814 10814 10814 10814 10814 10815 10815 10815 10815 10816 10816 10816 10816 10816 10816 10816 10816 10816 10815 10815 10815 10815 10816 10815 10815 10815 10815 10816 10816 10817 10816 10816 10817 10816 10816 10815 10812 10809 10810 10811 10809 10809 10809 10810 10810 10810 10810 10810
10774 10775 10776 10778 10779 10781 10782 10784 10785 10787 10788 10790 10791 10793 10794 10795 10797 10798 10799 10800 10802 10803 10803 10804 10805 10805 10806 10807 10808 10808 10809 10810 10810 10810 10810 10810 10810 10810 10810 10811 10811 10812 10812 10812 10812 10812 10813 10813 10813 10814 10814 10814 10814 10814 10814 10814 10814 10814 10814 10814 10814 10814 10814 10813 10813 10813 10813 10814 10815 10815 10815 10815 10815 10815 10814 10813 10810 10808 10809 10809 10807 10807 10808 10808 10808 10808 10808 10808
10769 10770 10772 10774 10775 10777 10778 10780 10781 10783 10784 10786 10787 10789 10790 10792 10793 10794 10796 10797 10798 10799 10800 10801 10801 10802 10803 10803 10804 10805 10806 10807 10807 10807 10807 10807 10807 10807 10808 10808 10808 10809 10809 10810 10810 10810 10810 10811 10811 10811 10812 10811 10811 10812 10812 10812 10812 10812 10812 10812 10812 10812 10812 10811 10811 10811 10811 10811 10812 10813 10813 10814 10814 10813 10812 10811 10809 10807 10807 10807 10806 10805 10805 10806 10806 10807 10807 10807
10764 10766 10767 10769 10771 10772 10774 10775 10777 10779 10780 10782 10784 10785 10787 10788 10789 10790 10792 10793 10794 10795 10796 10797 10798 10798 10799 10800 10801 10802 10803 10803 10803 10804 10804 10804 10805 10805 10805 10805 10806 10806 10807 10807 10808 10808 10808 10808 10809 10809 10809 10809 10809 10809 10810 10809 10809 10810 10810 10809 10810 10810 10810 10809 10809 10809 10809 10809 10809 10810 10811 10812 10811 10811 10811 10810 10808 10806 10805 10805 10805 10804 10803 10803 10804 10804 10804 10805
10759 10761 10763 10764 10766 10768 10769 10771 10772 10774 10776 10778 10779 10781 10782 10783 10785 10786 10788 10789 10790 10791 10792 10793 10794 10794 10795 10796 10797 10798 10799 10800 10800 10801 10801 10802 10802 10802 10803 10803 10803 10804 10804 10805 10805 10806 10806 10806 10806 10806 10806 10806 10806 10807 10807 10807 10807 10807 10807 10807 10807 10808 10807 10807 10807 10807 10807 10807 10807 10808 10809 10809 10808 10809 10808 10807 10806 10805 10804 10803 10803 10803 10802 10801 10801 10801 10802 10801
10754 10756 10758 10759 10761 10763 10764 10766 10768 10770 10771 10773 10775 10776 10778 10779 10780 10782 10783 10785 10786 10787 10788 10789 10790 10790 10791 10792 10793 10794 10796 10796 10796 10797 10798 10799 10799 10799 10800 10800 10801 10801 10802 10802 10803 10803 10803 10803 10803 10803 10804 10804 10803 10804 10804 10804 10804 10804 10804 10805 10805 10806 10805 10805 10805 10805 10804 10804 10804 10805 10806 10806 10805 10806 10805 10804 10803 10802 10802 10802 10801 10801 10800 10799 10799 10799 10799 10799
10750 10751 10753 10754 10756 10758 10759 10761 10763 10765 10766 10768 10770 10771 10773 10774 10776 10777 10779 10780 10781 10783 10784 10785 10786 10786 10787 10788 10789 10790 10792 10793 10792 10794 10795 10795 10796 10796 10797 10797 10798 10798 10799 10799 10800 10800 10800 10800 10800 10800 10801 10801 10800 10801 10801 10801 10801 10801 10802 10802 10802 10803 10803 10803 10803 10802 10801 10801 10801 10802 10803 10803 10803 10803 10802 10800 10799 10798 10799 10799 10799 10798 10798 10797 10797 10797 10797 10796
10744 10746 10748 10749 10751 10752 10754 10756 10758 10759 10761 10763 10765 10766 10768 10770 10771 10772 10774 10775 10777 10778 10779 10780 10781 10782 10783 10784 10785 10786 10789 10789 10788 10790 10792 10792 10793 10793 10794 10794 10795 10795 10796 10796 10797 10797 10797 10797 10797 10797 10798 10798 10797 10798 10798 10798 10798 10798 10799 10799 10799 10800 10800 10800 10800 10799 10798 10798 10797 10798 10801 10800 10799 10800 10799 10798 10796 10795 10795 10795 10795 10795 10795 10794 10794 10794 10794 10793
10739 10741 10743 10744 10746 10747 10749 10751 10753 10754 10756 10758 10760 10761 10763 10765 10766 10768 10769 10770 10772 10773 10774 10776 10777 10778 10779 10780 10781 10782 10785 10786 10784 10786 10788 10789 10789 10790 10790 10791 10791 10791 10792 10793 10793 10794 10794 10794 10794 10794 10794 10794 10794 10795 10795 10795 10794 10795 10795 10795 10796 10797 10797 10798 10798 10797 10795 10794 10794 10795 10797 10797 10796 10796 10795 10794 10793 10792 10792 10792 10791 10790 10790 10791 10790 10790 10790 10789
10734 10736 10738 10739 10741 10742 10744 10746 10748 10749 10751 10753 10754 10756 10758 10760 10761 10763 10764 10765 10767 10768 10770 10771 10773 10774 10775 10776 10776 10778 10782 10782 10780 10781 10783 10785 10786 10786 10787 10787 10787 10788 10789 10789 10790 10790 10790 10791 10791 10791 10791 10790 10791 10791 10791 10791 10791 10791 10791 10792 10793 10794 10795 10795 10794 10793 10792 10791 10791 10792 10793 10793 10792 10792 10791 10791 10790 10789 10789 10789 10788 10787 10786 10787 10786 10786 10785 10785
10729 10731 10732 10734 10736 10737 10739 10741 10742 10744 10745 10747 10749 10751 10753 10755 10756 10758 10759 10761 10762 10763 10765 10767 10768 10770 10770 10771 10771 10774 10777 10777 10776 10777 10779 10780 10781 10782 10782 10783 10784 10784 10785 10786 10786 10787 10787 10787 10787 10787 10787 10786 10787 10787 10788 10787 10787 10787 10787 10788 10789 10790 10791 10791 10791 10789 10788 10788 10788 10789 10790 10789 10788 10788 10788 10787 10786 10785 10785 10785 10784 10784 10784 10784 10783 10782 10781 10781
10723 10725 10727 10729 10730 10732 10733 10735 10737 10738 10740 10742 10744 10746 10748 10750 10751 10753 10754 10756 10757 10759 10760 10762 10764 10765 10766 10767 10767 10769 10772 10772 10773 10774 10774 10775 10777 10777 10778 10779 10780 10780 10781 10782 10782 10783 10783 10783 10783 10783 10783 10782 10783 10784 10784 10783 10783 10784 10783 10784 10785 10786 10787 10787 10786 10785 10785 10785 10785 10785 10785 10785 10784 10784 10784 10784 10783 10782 10781 10780 10780 10780 10781 10781 10780 10779 10778 10778
10718 10720 10721 10723 10725 10726 10728 10729 10731 10733 10735 10736 10738 10740 10742 10744 10746 10747 10749 10751 10752 10754 10755 10757 10758 10760 10761 10761 10761 10764 10767 10768 10769 10769 10770 10771 10772 10772 10774 10775 10776 10776 10777 10777 10778 10779 10779 10779 10780 10779 10779 10779 10779 10779 10780 10779 10780 10780 10780 10780 10781 10782 10782 10781 10781 10782 10783 10783 10783 10782 10781 10780 10780 10780 10780 10780 10780 10779 10778 10776 10775 10776 10777 10777 10777 10776 10775 10775
10712 10714 10716 10718 10719 10720 10722 10724 10725 10727 10729 10731 10733 10734 10736 10738 10740 10742 10743 10745 10747 10749 10750 10752 10753 10755 10757 10756 10756 10760 10762 10763 10765 10765 10766 10767 10767 10768 10769 10770 10771 10772 10772 10773 10774 10774 10775 10775 10775 10775 10775 10775 10775 10775 10776 10775 10776 10776 10777 10777 10777 10776 10775 10776 10777 10778 10779 10780 10779 10779 10777 10776 10775 10776 10777 10777 10776 10775 10774 10773 10772 10772 10772 10773 10772 10772 10771 10771
10707 10709 10710 10712 10713 10715 10717 10718 10720 10721 10723 10725 10726 10729 10731 10732 10735 10736 10738 10740 10742 10744 10745 10747 10749 10750 10752 10751 10752 10755 10756 10758 10759 10761 10762 10762 10762 10763 10764 10765 10766 10766 10767 10768 10769 10770 10770 10770 10771 10771 10770 10770 10770 10770 10771 10772 10772 10772 10773 10773 10771 10770 10769 10771 10774 10775 10776 10776 10775 10774 10773 10771 10770 10772 10773 10772 10771 10770 10769 10769 10769 10769 10768 10768 10768 10767 10767 10766
10701 10703 10705 10706 10708 10709 10711 10713 10714 10716 10717 10719 10721 10723 10724 10727 10729 10731 10733 10735 10737 10739 10740 10743 10743 10745 10747 10746 10747 10748 10750 10753 10754 10755 10756 10757 10758 10758 10759 10760 10761 10761 10762 10763 10764 10765 10765 10766 10766 10766 10765 10765 10765 10765 10767 10769 10768 10768 10769 10768 10766 10765 10765 10766 10768 10770 10772 10772 10771 10769 10768 10766 10766 10768 10768 10767 10766 10765 10765 10764 10764 10764 10764 10764 10763 10763 10762 10762
10694 10697 10699 10700 10702 10704 10706 10707 10709 10710 10711 10713 10715 10717 10719 10721 10723 10725 10727 10729 10731 10733 10735 10737 10737 10740 10743 10741 10741 10742 10744 10747 10748 10749 10751 10752 10753 10753 10754 10755 10755 10756 10757 10757 10758 10759 10760 10761 10761 10761 10760 10759 10758 10760 10764 10765 10763 10763 10764 10763 10762 10761 10761 10760 10762 10766 10767 10767 10766 10764 10763 10762 10762 10763 10763 10762 10761 10761 10760 10760 10759 10759 10759 10759 10758 10758 10757 10757
10687 10690 10692 10694 10696 10698 10700 10702 10703 10705 10706 10708 10710 10712 10713 10715 10717 10719 10721 10722 10725 10726 10729 10730 10731 10735 10737 10735 10735 10736 10739 10741 10742 10744 10745 10746 10747 10748 10749 10749 10750 10751 10751 10752 10752 10753 10755 10756 10757 10756 10753 10751 10754 10757 10760 10759 10757 10758 10759 10759 10759 10757 10756 10754 10757 10762 10762 10761 10760 10759 10758 10756 10758 10759 10757 10756 10756 10756 10756 10755 10754 10754 10753 10753 10752 10752 10752 10751
10680 10683 10686 10687 10689 10692 10694 10696 10698 10699 10700 10702 10704 10706 10708 10709 10711 10713 10714 10716 10719 10720 10722 10724 10726 10730 10731 10730 10731 10731 10733 10736 10737 10738 10740 10740 10741 10742 10743 10744 10745 10746 10746 10747 10747 10749 10750 10751 10752 10749 10745 10746 10751 10753 10754 10754 10753 10753 10754 10755 10754 10753 10752 10750 10753 10757 10757 10756 10754 10753 10753 10751 10752 10754 10751 10750 10750 10750 10751 10750 10749 10749 10748 10747 10746 10746 10746 10745
10674 10676 10679 10681 10683 10686 10688 10690 10692 10693 10695 10697 10698 10700 10701 10702 10704 10707 10708 10710 10712 10714 10717 10720 10722 10724 10726 10725 10725 10726 10728 10730 10732 10732 10733 10734 10735 10736 10738 10738 10739 10740 10741 10741 10743 10744 10744 10747 10746 10740 10739 10744 10748 10748 10748 10748 10748 10748 10749 10750 10750 10749 10747 10747 10750 10751 10751 10752 10748 10747 10748 10746 10746 10747 10745 10744 10744 10744 10745 10744 10744 10743 10742 10741 10740 10740 10739 10739
10667 10670 10672 10674 10677 10679 10682 10684 10686 10687 10689 10691 10692 10693 10694 10695 10697 10700 10701 10704 10706 10708 10712 10714 10716 10719 10719 10719 10720 10721 10723 10724 10725 10726 10727 10728 10728 10730 10731 10731 10732 10734 10734 10736 10738 10737 10738 10742 10738 10733 10737 10741 10741 10741 10742 10743 10743 10743 10744 10744 10745 10744 10742 10743 10746 10746 10745 10746 10744 10742 10742 10741 10741 10740 10738 10738 10738 10738 10738 10738 10737 10736 10735 10735 10734 10734 10733 10732
10660 10664 10665 10668 10671 10673 10675 10678 10679 10682 10684 10685 10686 10686 10686 10688 10691 10693 10694 10698 10701 10702 10706 10709 10712 10713 10712 10714 10716 10715 10717 10718 10719 10720 10720 10721 10722 10723 10724 10725 10726 10727 10728 10730 10730 10730 10733 10735 10730 10728 10733 10734 10734 10736 10736 10737 10737 10737 10738 10739 10739 10738 10738 10740 10741 10740 10740 10740 10739 10738 10736 10735 10735 10734 10732 10732 10732 10732 10732 10731 10730 10730 10729 10728 10727 10727 10726 10725
10653 10656 10658 10661 10664 10666 10669 10671 10673 10676 10677 10678 10678 10678 10680 10682 10684 10686 10688 10693 10695 10697 10701 10704 10706 10707 10707 10709 10709 10709 10713 10713 10712 10713 10713 10714 10715 10715 10718 10719 10719 10721 10723 10723 10721 10723 10728 10728 10724 10725 10727 10726 10728 10730 10730 10731 10732 10732 10732 10733 10733 10732 10734 10736 10735 10735 10735 10734 10734 10733 10731 10730 10729 10728 10727 10727 10726 10725 10725 10724 10723 10723 10722 10721 10720 10720 10719 10718
10645 10648 10651 10654 10656 10660 10662 10664 10668 10669 10668 10670 10670 10671 10674 10675 10677 10679 10681 10687 10692 10693 10694 10697 10700 10702 10701 10701 10703 10705 10707 10705 10706 10707 10706 10707 10708 10708 10711 10711 10712 10716 10716 10714 10714 10718 10721 10722 10720 10719 10719 10720 10723 10724 10724 10724 10725 10726 10727 10727 10727 10727 10728 10729 10729 10729 10730 10729 10728 10728 10727 10724 10722 10722 10721 10720 10720 10719 10718 10717 10716 10716 10716 10715 10714 10713 10712 10711
10636 10639 10643 10646 10649 10652 10654 10659 10662 10659 10660 10663 10662 10664 10667 10668 10669 10672 10673 10678 10688 10691 10687 10690 10695 10696 10695 10695 10698 10697 10697 10700 10701 10699 10698 10699 10699 10701 10703 10704 10707 10710 10708 10706 10709 10712 10715 10715 10713 10712 10713 10715 10717 10718 10717 10717 10719 10721 10721 10721 10721 10721 10722 10723 10724 10724 10724 10724 10723 10723 10723 10719 10716 10716 10715 10714 10714 10713 10711 10710 10709 10709 10709 10707 10706 10706 10705 10704
10627 10631 10635 10638 10641 10645 10649 10654 10652 10650 10654 10654 10654 10658 10660 10661 10662 10664 10665 10669 10683 10689 10683 10683 10687 10691 10691 10688 10689 10687 10688 10697 10694 10688 10690 10691 10691 10693 10695 10699 10701 10702 10701 10700 10703 10708 10709 10706 10705 10707 10708 10709 10711 10711 10709 10709 10714 10716 10714 10714 10715 10715 10716 10717 10718 10718 10719 10719 10717 10717 10717 10714 10710 10709 10710 10709 10708 10707 10705 10703 10702 10702 10701 10700 10699 10699 10698 10697
10619 10623 10627 10630 10634 10638 10643 10645 10642 10645 10648 10644 10647 10651 10652 10653 10654 10656 10655 10659 10679 10688 10681 10679 10680 10682 10683 10681 10680 10678 10682 10690 10683 10679 10683 10683 10684 10686 10689 10693 10694 10694 10694 10694 10699 10703 10701 10698 10699 10700 10701 10703 10704 10703 10702 10704 10708 10709 10707 10707 10708 10709 10710 10711 10711 10713 10714 10713 10712 10710 10709 10710 10707 10702 10702 10704 10703 10700 10698 10696 10695 10694 10694 10693 10692 10692 10691 10690
10611 10614 10618 10623 10627 10632 10635 10636 10637 10640 10638 10637 10641 10642 10643 10645 10645 10647 10645 10651 10676 10685 10677 10676 10673 10674 10675 10674 10673 10670 10674 10680 10675 10675 10676 10675 10679 10681 10683 10687 10687 10686 10688 10689 10693 10695 10693 10692 10693 10692 10694 10696 10696 10695 10696 10699 10701 10702 10700 10700 10701 10702 10704 10705 10705 10707 10707 10707 10707 10703 10701 10705 10705 10698 10695 10696 10695 10693 10691 10689 10688 10687 10686 10686 10686 10685 10684 10683
10604 10607 10612 10615 10620 10626 10629 10631 10632 10630 10628 10630 10631 10632 10635 10635 10637 10638 10635 10648 10673 10678 10672 10671 10668 10667 10667 10666 10666 10664 10666 10670 10669 10670 10670 10670 10674 10676 10677 10679 10679 10681 10682 10683 10686 10687 10687 10686 10685 10686 10688 10689 10688 10688 10689 10691 10693 10694 10693 10693 10694 10696 10697 10698 10699 10700 10700 10702 10701 10695 10694 10699 10701 10697 10691 10688 10687 10686 10684 10682 10680 10680 10679 10678 10677 10676 10675 10674
10597 10602 10606 10608 10615 10620 10621 10624 10623 10618 10620 10622 10622 10625 10626 10627 10630 10626 10628 10650 10667 10666 10664 10664 10661 10661 10659 10658 10658 10657 10658 10660 10662 10664 10664 10666 10668 10669 10671 10671 10673 10675 10675 10677 10678 10679 10679 10679 10678 10680 10681 10681 10682 10682 10682 10683 10685 10685 10685 10686 10687 10689 10690 10691 10692 10692 10693 10696 10693 10687 10688 10692 10695 10695 10688 10682 10680 10678 10676 10674 10673 10672 10671 10670 10669 10667 10666 10665
10589 10594 10597 10602 10609 10611 10613 10617 10613 10609 10613 10615 10615 10618 10617 10619 10619 10614 10628 10651 10653 10650 10656 10657 10656 10655 10651 10649 10649 10649 10651 10652 10654 10657 10658 10660 10661 10663 10665 10665 10667 10668 10669 10671 10670 10669 10671 10672 10672 10673 10674 10675 10675 10675 10675 10675 10677 10677 10678 10678 10679 10681 10682 10683 10684 10684 10685 10688 10684 10682 10683 10685 10688 10689 10683 10678 10676 10672 10670 10668 10666 10665 10664 10663 10661 10660 10659 10658
10579 10584 10587 10593 10599 10603 10607 10608 10602 10601 10607 10608 10607 10608 10608 10607 10605 10611 10632 10641 10635 10641 10652 10651 10649 10647 10643 10642 10642 10642 10644 10645 10647 10649 10650 10652 10654 10657 10657 10658 10660 10660 10662 10663 10659 10660 10664 10665 10666 10666 10667 10667 10666 10667 10668 10668 10669 10670 10671 10671 10671 10673 10674 10675 10675 10675 10677 10679 10678 10677 10677 10679 10681 10679 10676 10673 10670 10667 10665 10663 10661 10659 10658 10657 10655 10654 10652 10651
10570 10573 10577 10584 10591 10595 10598 10597 10594 10595 10599 10599 10598 10599 10596 10592 10598 10615 10627 10625 10625 10636 10643 10642 10641 10639 10636 10637 10636 10635 10636 10637 10640 10641 10643 10644 10647 10650 10650 10651 10652 10651 10654 10654 10652 10655 10658 10658 10659 10659 10658 10659 10659 10660 10660 10661 10662 10662 10663 10662 10664 10665 10665 10666 10666 10666 10669 10670 10671 10671 10671 10674 10674 10670 10666 10665 10662 10661 10658 10656 10654 10653 10651 10649 10648 10646 10645 10644
10559 10563 10569 10576 10581 10584 10586 10588 10588 10588 10589 10591 10591 10587 10582 10583 10597 10611 10615 10615 10620 10627 10631 10633 10632 10631 10631 10631 10630 10629 10629 10631 10634 10634 10636 10638 10640 10643 10643 10643 10644 10644 10645 10645 10646 10647 10648 10650 10651 10650 10651 10651 10652 10652 10653 10654 10655 10655 10655 10655 10657 10656 10655 10657 10657 10658 10661 10661 10663 10664 10665 10667 10667 10662 10659 10656 10654 10652 10649 10648 10646 10644 10642 10641 10639 10637 10636 10636
10550 10554 10559 10565 10570 10575 10579 10580 10581 10580 10581 10583 10581 10572 10570 10581 10595 10600 10603 10606 10610 10614 10620 10622 10622 10624 10626 10626 10626 10625 10624 10625 10626 10626 10629 10632 10634 10636 10636 10637 10637 10637 10636 10637 10638 10638 10640 10643 10642 10642 10644 10644 10644 10645 10645 10647 10647 10647 10647 10648 10649 10646 10645 10648 10650 10652 10652 10653 10657 10658 10657 10659 10657 10655 10653 10650 10646 10643 10641 10639 10637 10634 10633 10631 10629 10628 10628 10627
10540 10544 10550 10556 10564 10568 10569 10570 10571 10572 10573 10572 10566 10560 10565 10580 10588 10589 10592 10595 10597 10603 10608 10610 10613 10617 10619 10621 10621 10620 10618 10618 10619 10620 10622 10624 10626 10628 10629 10629 10628 10628 10628 10628 10630 10631 10632 10635 10635 10635 10636 10636 10636 10637 10638 10639 10639 10639 10640 10641 10638 10635 10637 10641 10642 10644 10643 10645 10650 10650 10649 10650 10648 10647 10647 10642 10637 10635 10632 10630 10627 10625 10623 10621 10620 10619 10618 10617
10531 10536 10541 10549 10556 10557 10557 10559 10561 10562 10563 10559 10554 10553 10562 10573 10578 10580 10583 10584 10587 10591 10595 10599 10604 10607 10610 10613 10614 10614 10611 10611 10612 10614 10615 10616 10619 10623 10622 10620 10620 10621 10619 10618 10621 10624 10624 10626 10627 10627 10627 10628 10628 10629 10630 10631 10631 10631 10632 10631 10627 10628 10631 10632 10632 10635 10634 10635 10641 10643 10642 10642 10640 10640 10639 10633 10628 10625 10621 10618 10616 10615 10613 10612 10610 10609 10608 10607
10524 10527 10532 10541 10545 10545 10548 10550 10551 10552 10552 10547 10544 10548 10557 10565 10571 10573 10575 10576 10576 10579 10584 10589 10592 10595 10599 10603 10607 10606 10603 10605 10607 10607 10607 10608 10613 10616 10613 10610 10612 10612 10609 10610 10614 10615 10614 10616 10619 10619 10619 10619 10619 10620 10623 10624 10622 10622 10622 10621 10621 10622 10624 10623 10622 10625 10625 10625 10631 10635 10635 10635 10634 10632 10628 10624 10619 10614 10609 10607 10606 10605 10603 10602 10600 10598 10597 10596
10513 10516 10525 10533 10534 10536 10539 10541 10540 10541 10538 10535 10539 10546 10551 10558 10564 10564 10565 10567 10566 10568 10575 10579 10580 10584 10589 10594 10597 10596 10595 10599 10601 10599 10600 10602 10606 10608 10604 10601 10603 10602 10600 10601 10604 10605 10606 10608 10610 10611 10610 10609 10611 10613 10614 10613 10611 10612 10614 10615 10614 10615 10615 10614 10613 10614 10615 10615 10619 10625 10628 10629 10628 10622 10618 10614 10607 10601 10598 10597 10596 10595 10593 10591 10589 10587 10586 10585
10504 10508 10518 10523 10523 10526 10529 10528 10527 10525 10523 10527 10536 10543 10545 10549 10553 10554 10556 10558 10557 10559 10566 10570 10571 10574 10579 10583 10586 10587 10588 10591 10593 10592 10593 10596 10598 10600 10596 10593 10593 10592 10590 10592 10595 10598 10599 10599 10600 10601 10601 10602 10604 10604 10603 10602 10602 10605 10607 10607 10606 10606 10606 10605 10604 10605 10605 10605 10608 10613 10619 10623 10620 10614 10609 10602 10594 10590 10589 10587 10585 10584 10582 10580 10578 10576 10575 10574
10491 10497 10508 10513 10513 10516 10517 10514 10513 10513 10515 10521 10530 10537 10538 10540 10543 10545 10547 10548 10549 10551 10555 10559 10561 10565 10569 10572 10576 10578 10578 10580 10584 10584 10586 10589 10590 10590 10588 10585 10584 10583 10582 10584 10588 10589 10588 10589 10590 10591 10593 10594 10594 10592 10592 10594 10595 10596 10597 10598 10598 10597 10595 10593 10594 10596 10595 10595 10597 10601 10607 10613 10611 10605 10598 10589 10583 10581 10580 10578 10575 10573 10571 10570 10567 10564 10564 10563
10477 10485 10499 10503 10502 10504 10504 10501 10503 10505 10507 10513 10520 10526 10529 10531 10533 10536 10537 10538 10540 10543 10545 10548 10553 10555 10558 10562 10565 10567 10567 10570 10574 10575 10577 10581 10580 10579 10579 10576 10577 10577 10575 10576 10579 10579 10577 10579 10580 10581 10583 10583 10583 10583 10585 10586 10586 10586 10588 10589 10587 10585 10584 10582 10584 10587 10585 10585 10587 10587 10593 10602 10600 10591 10582 10578 10576 10573 10568 10567 10565 10563 10561 10558 10556 10555 10553 10551
10469 10477 10487 10489 10490 10493 10492 10490 10493 10497 10500 10506 10511 10514 10519 10524 10526 10527 10529 10530 10531 10534 10536 10539 10543 10544 10547 10551 10553 10555 10557 10559 10562 10566 10569 10571 10571 10571 10570 10568 10569 10570 10568 10567 10569 10569 10566 10568 10570 10571 10572 10572 10573 10575 10576 10577 10577 10576 10577 10576 10574 10575 10576 10574 10576 10577 10574 10577 10578 10574 10581 10590 10586 10575 10569 10568 10567 10561 10556 10556 10555 10552 10550 10548 10548 10546 10543 10540
10463 10467 10471 10474 10477 10479 10479 10480 10487 10492 10495 10498 10501 10503 10509 10515 10518 10520 10521 10522 10523 10525 10526 10529 10531 10533 10535 10538 10539 10543 10546 10547 10551 10556 10558 10560 10562 10562 10560 10559 10559 10561 10559 10559 10560 10558 10555 10556 10560 10561 10562 10563 10564 10565 10567 10567 10565 10563 10564 10565 10565 10567 10566 10564 10565 10563 10563 10570 10568 10561 10569 10577 10568 10560 10558 10556 10553 10549 10546 10545 10542 10539 10537 10538 10537 10535 10531 10529
10452 10453 10457 10462 10463 10465 10469 10473 10480 10485 10487 10489 10491 10494 10499 10503 10508 10512 10513 10512 10513 10514 10516 10518 10521 10523 10524 10526 10528 10531 10533 10535 10540 10544 10547 10549 10551 10551 10550 10549 10549 10550 10550 10549 10550 10547 10543 10546 10550 10551 10552 10553 10553 10555 10556 10554 10550 10551 10555 10557 10555 10555 10555 10552 10551 10550 10554 10559 10554 10551 10557 10557 10550 10548 10546 10542 10539 10537 10535 10532 10528 10527 10527 10526 10524 10521 10518 10516
10440 10441 10446 10450 10451 10454 10460 10464 10468 10474 10480 10484 10484 10486 10488 10492 10497 10500 10500 10501 10502 10503 10506 10508 10511 10513 10515 10516 10518 10519 10521 10523 10525 10529 10533 10535 10537 10538 10538 10538 10538 10540 10540 10540 10539 10535 10533 10536 10539 10541 10541 10541 10540 10542 10544 10542 10540 10542 10545 10546 10544 10544 10543 10539 10536 10539 10542 10539 10540 10545 10541 10535 10537 10537 10530 10528 10527 10522 10520 10518 10517 10518 10517 10513 10510 10507 10505 10504
10428 10430 10435 10440 10441 10444 10449 10454 10457 10463 10470 10473 10473 10476 10479 10480 10483 10487 10488 10490 10491 10492 10494 10497 10501 10504 10506 10508 10508 10508 10509 10510 10511 10515 10518 10520 10522 10524 10525 10525 10526 10527 10528 10528 10527 10524 10523 10525 10528 10530 10529 10528 10528 10528 10530 10530 10529 10530 10533 10534 10535 10534 10530 10526 10524 10528 10527 10520 10525 10534 10524 10519 10527 10523 10514 10515 10512 10504 10504 10506 10508 10508 10504 10500 10497 10493 10491 10491
10418 10420 10426 10430 10432 10436 10441 10445 10448 10450 10453 10455 10456 10462 10468 10471 10474 10478 10479 10479 10480 10482 10482 10485 10491 10496 10497 10497 10498 10498 10499 10500 10500 10502 10503 10506 10508 10509 10510 10511 10511 10513 10514 10514 10514 10512 10510 10512 10515 10516 10516 10515 10514 10513 10515 10517 10516 10517 10519 10522 10525 10523 10518 10514 10514 10515 10509 10503 10510 10515 10508 10509 10516 10508 10499 10497 10491 10488 10492 10495 10495 10492 10488 10485 10483 10479 10477 10475
10409 10412 10416 10419 10424 10430 10434 10437 10437 10436 10440 10442 10443 10449 10456 10462 10467 10470 10470 10468 10470 10471 10471 10474 10481 10484 10485 10486 10487 10488 10491 10491 10491 10492 10492 10493 10494 10495 10497 10498 10499 10501 10501 10501 10501 10500 10498 10500 10502 10502 10503 10502 10500 10499 10500 10501 10502 10503 10505 10508 10512 10511 10505 10501 10501 10498 10489 10488 10497 10495 10490 10499 10503 10490 10480 10476 10473 10475 10479 10478 10477 10475 10472 10471 10468 10464 10461 10457
10401 10404 10406 10409 10413 10418 10422 10425 10426 10427 10429 10431 10435 10442 10448 10452 10456 10459 10458 10458 10459 10460 10461 10465 10469 10471 10472 10475 10477 10479 10482 10481 10481 10483 10482 10481 10481 10482 10484 10486 10488 10490 10490 10489 10490 10489 10489 10490 10490 10490 10489 10488 10489 10488 10486 10486 10488 10489 10492 10498 10500 10495 10488 10484 10483 10479 10474 10478 10483 10474 10473 10486 10485 10469 10461 10461 10461 10461 10461 10460 10460 10458 10457 10456 10452 10449 10445 10441
10390 10392 10394 10398 10401 10405 10408 10411 10414 10416 10418 10422 10429 10436 10439 10442 10444 10444 10443 10445 10448 10450 10453 10457 10459 10459 10459 10463 10468 10470 10471 10470 10471 10471 10471 10471 10472 10473 10473 10475 10478 10480 10480 10480 10479 10479 10479 10479 10480 10479 10476 10477 10479 10476 10473 10474 10473 10473 10485 10495 10488 10477 10471 10468 10468 10469 10467 10465 10463 10458 10462 10469 10463 10451 10449 10448 10445 10444 10444 10445 10445 10443 10442 10439 10436 10433 10430 10427
10377 10379 10382 10386 10388 10392 10396 10399 10401 10404 10409 10417 10422 10424 10427 10429 10431 10430 10432 10436 10440 10442 10444 10446 10447 10448 10449 10454 10458 10458 10457 10458 10459 10459 10460 10462 10463 10464 10464 10465 10467 10469 10469 10469 10468 10468 10468 10468 10468 10466 10464 10466 10466 10463 10462 10460 10455 10462 10482 10485 10470 10460 10459 10458 10460 10462 10457 10450 10446 10446 10450 10450 10443 10438 10437 10433 10429 10429 10430 10431 10431 10429 10427 10423 10420 10417 10414 10411